Simultaneous Nadir Overpasses (SNOs) Predictions

Prediction of SNOs between GOES-16 and TERRA Satellite Orbit:

Table of predicted SNOs for the next 14.0 days since TLE Epoch: 11/12/2022
Index Date Time (GOES-16) GOES-16 Lat,Lon TERRA Lat,Lon Distance(km) Time Diff (sec)
1 11/14/2022 02:57:42 0.05, -75.19 0.85, -71.51 419.11 80
2 11/14/2022 15:18:03 -0.05, -75.22 0.21, -76.45 140.09 80
3 11/16/2022 15:05:02 -0.04, -75.23 -0.57, -72.66 292.60 80
4 11/17/2022 03:25:32 0.04, -75.22 -0.50, -77.63 275.26 80
5 11/19/2022 03:07:11 0.04, -75.24 0.31, -73.84 158.39 80
6 11/19/2022 15:27:33 -0.03, -75.27 0.69, -78.79 400.57 80
7 11/21/2022 15:14:31 -0.03, -75.29 -0.07, -74.99 33.84 80
8 11/23/2022 14:58:50 -0.03, -75.32 -0.91, -71.21 468.24 80
9 11/24/2022 03:19:19 0.03, -75.31 -0.13, -76.19 99.03 80
10 11/26/2022 03:00:57 0.02, -75.34 0.62, -72.38 335.72 80
